Temp
5 4 4 4 4 4 3 3 3 2 2 1 0 0 0 0 -0 -1 -1 -1 -1 -1 -1 -1 -1 -1 -1 -1 -1 0 -0 2 2 3 4 5 5 7 8 9 9 9 10 10 10
5 4 4 4 4 3 3 2 2 2 1 0 -0 -0 -0 -1 -1 -1 -1 -1 -1 -1 -1 -1 -1 -2 -1 -1 -2 -1 -1 1 1 2 3 4 5 6 7 8 8 9 9 10 10
5 4 4 4 4 3 3 2 2 2 1 0 -1 -1 -1 -1 -1 -2 -2 -2 -1 -1 -2 -2 -2 -2 -2 -2 -2 -1 -1 -1 -1 1 2 3 4 5 7 7 8 8 9 9 10
5 4 4 4 4 3 3 2 2 1 0 -0 -1 -1 -1 -2 -2 -2 -2 -2 -1 -1 -2 -2 -2 -2 -2 -2 -1 -1 -1 -2 -0 0 2 3 3 4 6 6 8 8 8 8 9
5 4 4 3 4 3 3 2 2 1 0 -0 -1 -1 -1 -1 -2 -2 -1 -1 -2 -2 -2 -2 -2 -2 -2 -2 -2 -1 -1 -1 -0 0 1 3 3 4 6 6 7 7 8 8 8
5 5 4 4 3 3 3 2 2 1 0 -0 -1 -1 -1 -2 -2 -2 -2 -2 -2 -2 -2 -2 -3 -3 -2 -2 -2 -2 -2 -1 -1 0 1 2 2 4 5 6 6 7 7 8 8
5 5 4 4 3 3 3 2 2 1 1 0 -1 -1 -1 -2 -2 -2 -4 -3 -3 -3 -3 -3 -2 -3 -3 -2 -2 -2 -2 -2 -1 0 1 1 2 3 4 5 6 6 7 7 8
5 5 5 4 4 3 3 2 2 1 1 0 -0 -0 -1 -1 -1 -2 -1 -3 -3 -3 -3 -3 -2 -3 -2 -2 -2 -2 -2 -2 -0 0 1 1 3 2 4 5 6 6 6 7 7
5 5 5 4 4 3 3 2 2 1 1 0 0 -0 -1 -1 -1 -2 -1 -2 -2 -2 -3 -3 -3 -3 -3 -2 -2 -2 -1 -1 -1 0 1 0 2 2 4 5 6 6 6 7 6
5 5 5 5 4 3 3 3 2 1 1 1 0 -0 -0 -1 -1 -1 -2 -3 -2 -2 -2 -3 -3 -2 -3 -2 -1 -2 -2 -1 -1 -0 1 0 1 2 3 4 5 5 5 6 6
5 5 5 5 4 4 3 3 2 2 2 1 0 0 -0 -1 -1 -1 -1 -2 -2 -3 -3 -3 -3 -3 -3 -3 -2 -2 -2 -2 -1 -1 0 0 1 2 3 4 4 5 5 5 5
5 5 5 5 4 4 3 3 3 2 2 2 1 1 0 -0 -0 -0 -0 -1 -2 -2 -2 -3 -3 -3 -3 -3 -3 -3 -2 -2 -1 -1 -0 0 1 2 3 4 4 4 4 5 5
5 5 5 5 5 4 3 3 3 2 2 2 1 1 1 0 1 0 -0 -0 -1 -1 -2 -3 -3 -2 -3 -2 -3 -2 -2 -2 -0 -0 -0 1 1 2 3 4 3 4 4 4 5
5 5 5 5 5 4 4 3 3 2 2 2 2 1 1 1 1 1 1 0 0 -0 -1 -1 -2 -2 -3 -3 -2 -2 -1 -1 -1 -0 2 1 3 2 3 4 3 3 4 4 4
5 5 5 5 5 5 4 4 3 2 2 2 2 2 1 1 1 1 1 1 0 -0 -0 -1 -1 -2 -3 -2 -1 -1 -1 -0 -0 -0 1 1 2 4 3 3 3 3 4 4 4
5 5 5 5 5 5 5 4 4 3 2 3 2 2 2 1 1 1 1 1 1 1 0 -0 -0 -1 -1 -2 -1 -1 -0 -0 0 1 1 2 2 4 3 3 3 3 4 3 4
5 5 5 5 5 5 5 5 4 4 3 3 2 2 2 1 1 1 1 1 1 1 1 1 0 -0 -0 -0 -0 0 -1 1 1 1 2 1 2 3 3 4 4 4 4 3 4
5 5 5 5 5 5 5 5 4 4 4 3 3 2 2 2 2 2 2 2 2 2 1 1 1 1 1 0 0 1 1 1 2 2 3 1 3 4 3 3 4 4 4 4 4
4 4 5 5 4 4 4 4 5 4 4 3 3 3 2 2 2 2 2 2 2 1 1 1 1 1 1 1 1 1 1 1 1 1 2 2 3 3 4 4 4 4 4 4 4
4 4 4 4 4 4 4 4 5 4 4 3 3 3 2 2 2 2 2 2 2 1 1 1 1 1 1 2 1 1 1 1 2 2 3 2 2 4 4 4 4 4 4 4 4
4 4 4 4 4 4 4 4 4 4 4 3 3 3 3 2 2 2 2 2 2 1 1 1 1 1 1 2 2 2 2 2 2 2 4 4 4 4 4 5 4 4 5 4 4
3 3 4 4 4 4 4 3 3 4 4 4 3 3 3 3 3 2 2 2 2 2 1 1 1 1 2 2 2 2 2 2 3 2 1 1 3 3 4 4 4 4 4 4 3
2 3 3 3 3 4 4 3 3 3 3 4 3 3 3 3 2 3 3 2 2 2 2 1 1 1 2 2 2 2 2 2 2 2 1 3 3 3 3 3 2 2 3 2 2
1 1 2 3 3 3 4 4 3 3 3 3 3 3 3 3 2 3 3 3 2 2 2 2 1 2 3 2 2 2 2 2 1 1 2 2 3 2 2 2 2 2 1 1 1
1 0 1 2 3 2 3 3 4 3 3 2 3 3 3 2 3 3 2 2 3 2 2 2 2 2 2 2 2 2 2 2 2 2 2 3 3 2 2 2 1 1 1 1 2
-2 -1 -1 0 1 1 2 3 3 3 3 3 3 2 2 2 2 2 2 2 2 2 2 1 2 2 3 3 3 3 3 1 1 2 2 2 3 2 2 2 1 1 1 1 1
-4 -5 -4 -2 -1 -0 1 2 2 2 2 3 2 2 2 2 2 2 1 1 1 1 1 1 1 1 1 2 2 3 4 3 3 2 2 2 3 3 2 1 1 1 1 0 0
Height
3155 3152 3149 3147 3144 3141 3137 3134 3131 3127 3123 3119 3116 3113 3109 3105 3102 3100 3099 3097 3095 3094 3093 3093 3093 3095 3098 3100 3102 3105 3110 3112 3117 3121 3128 3129 3133 3139 3142 3146 3149 3152 3156 3158 3160
3155 3152 3149 3147 3145 3141 3137 3134 3131 3127 3123 3119 3115 3111 3107 3101 3097 3095 3095 3092 3092 3091 3091 3090 3091 3093 3094 3097 3100 3102 3106 3110 3115 3119 3123 3126 3130 3134 3139 3142 3145 3149 3153 3155 3157
3155 3152 3150 3147 3145 3141 3138 3135 3131 3128 3124 3119 3114 3110 3105 3101 3096 3094 3091 3090 3089 3089 3088 3088 3089 3091 3093 3095 3097 3099 3103 3107 3109 3113 3117 3120 3125 3129 3134 3137 3142 3147 3150 3153 3155
3156 3153 3150 3148 3145 3141 3138 3135 3132 3129 3124 3119 3115 3111 3106 3102 3100 3092 3086 3085 3086 3087 3086 3086 3087 3089 3090 3092 3094 3098 3099 3103 3106 3110 3114 3117 3120 3125 3129 3136 3139 3143 3147 3149 3152
3156 3153 3150 3148 3145 3142 3138 3135 3133 3129 3124 3120 3115 3111 3107 3103 3098 3090 3084 3083 3083 3085 3084 3085 3086 3087 3088 3090 3093 3095 3097 3100 3105 3108 3111 3114 3116 3121 3125 3130 3135 3139 3143 3146 3150
3156 3153 3150 3147 3145 3141 3139 3135 3132 3130 3125 3121 3117 3112 3108 3104 3099 3091 3086 3084 3084 3082 3083 3084 3084 3084 3086 3088 3091 3092 3095 3098 3102 3105 3109 3110 3113 3116 3123 3126 3131 3136 3140 3145 3147
3155 3152 3149 3147 3144 3141 3138 3135 3132 3129 3126 3122 3117 3113 3109 3106 3098 3090 3086 3085 3084 3083 3082 3082 3082 3081 3083 3087 3089 3091 3093 3095 3097 3102 3105 3107 3109 3109 3119 3122 3127 3132 3135 3141 3146
3154 3151 3148 3146 3143 3141 3138 3135 3132 3129 3126 3122 3118 3114 3109 3104 3098 3091 3085 3084 3084 3083 3083 3082 3083 3083 3083 3086 3088 3091 3093 3094 3095 3098 3102 3106 3107 3110 3113 3118 3123 3127 3132 3137 3142
3154 3151 3147 3144 3142 3139 3137 3134 3131 3128 3126 3122 3119 3114 3110 3105 3101 3096 3090 3087 3085 3085 3084 3083 3083 3084 3085 3087 3088 3090 3091 3092 3094 3095 3099 3102 3105 3107 3109 3113 3118 3123 3128 3132 3137
3154 3150 3146 3143 3140 3138 3135 3133 3130 3127 3125 3122 3118 3117 3112 3107 3103 3099 3094 3089 3087 3086 3086 3085 3085 3084 3085 3087 3088 3089 3091 3090 3092 3094 3096 3098 3101 3104 3107 3110 3114 3119 3124 3128 3133
3154 3150 3146 3142 3138 3136 3134 3131 3131 3127 3123 3121 3119 3115 3112 3109 3105 3102 3098 3094 3090 3087 3087 3085 3086 3085 3085 3086 3087 3088 3088 3089 3090 3091 3094 3096 3100 3103 3104 3108 3111 3115 3120 3124 3128
3153 3150 3146 3142 3138 3135 3132 3130 3128 3126 3122 3120 3118 3115 3112 3108 3106 3102 3100 3098 3094 3091 3087 3085 3083 3083 3083 3085 3087 3087 3087 3088 3088 3089 3091 3095 3098 3101 3102 3105 3108 3112 3115 3119 3122
3152 3149 3146 3142 3138 3135 3131 3129 3126 3123 3121 3119 3117 3115 3112 3109 3107 3104 3101 3098 3095 3091 3089 3085 3083 3083 3084 3084 3086 3087 3086 3088 3090 3089 3090 3094 3098 3099 3100 3102 3105 3108 3112 3116 3119
3152 3148 3145 3142 3140 3134 3131 3127 3124 3122 3120 3121 3117 3115 3113 3109 3107 3105 3103 3101 3096 3093 3090 3089 3085 3084 3084 3085 3086 3087 3087 3087 3088 3090 3089 3092 3092 3095 3097 3099 3102 3105 3109 3114 3117
3151 3147 3144 3140 3137 3134 3131 3126 3123 3122 3122 3121 3116 3114 3111 3111 3108 3105 3102 3100 3097 3094 3093 3092 3088 3086 3084 3085 3086 3088 3086 3087 3088 3088 3089 3091 3093 3091 3094 3096 3099 3102 3106 3108 3113
3150 3147 3143 3140 3137 3133 3129 3126 3124 3124 3120 3120 3117 3114 3111 3109 3107 3104 3102 3100 3097 3095 3093 3091 3090 3088 3087 3087 3087 3087 3086 3087 3087 3088 3089 3088 3091 3087 3089 3094 3097 3101 3105 3109 3111
3149 3146 3142 3139 3136 3133 3129 3126 3124 3122 3122 3120 3117 3113 3111 3108 3106 3104 3101 3099 3097 3095 3093 3091 3090 3089 3088 3088 3088 3088 3089 3088 3089 3087 3084 3086 3089 3086 3085 3089 3094 3098 3103 3107 3110
3147 3145 3141 3138 3134 3132 3129 3127 3123 3120 3118 3116 3114 3112 3110 3108 3105 3103 3101 3098 3096 3094 3092 3091 3090 3089 3088 3089 3089 3089 3089 3087 3084 3082 3083 3084 3084 3083 3085 3086 3089 3093 3098 3103 3107
3145 3143 3141 3137 3134 3131 3129 3126 3123 3120 3118 3115 3112 3110 3109 3107 3106 3102 3100 3099 3096 3093 3093 3091 3089 3088 3087 3088 3090 3088 3088 3088 3086 3084 3083 3082 3081 3081 3082 3084 3086 3089 3093 3097 3102
3141 3139 3138 3136 3132 3130 3128 3125 3121 3119 3116 3114 3112 3110 3108 3107 3104 3102 3100 3098 3095 3093 3092 3091 3089 3088 3087 3088 3088 3088 3088 3088 3085 3084 3080 3079 3078 3077 3079 3081 3084 3086 3089 3092 3096
3136 3135 3133 3132 3131 3128 3125 3123 3120 3118 3116 3114 3111 3109 3107 3105 3103 3101 3099 3098 3095 3092 3091 3090 3089 3089 3087 3085 3086 3086 3085 3085 3084 3082 3078 3075 3075 3074 3075 3078 3081 3083 3086 3088 3090
3129 3128 3128 3127 3128 3124 3122 3121 3119 3116 3114 3112 3110 3108 3106 3104 3102 3100 3098 3096 3094 3092 3090 3089 3088 3086 3085 3083 3082 3081 3081 3081 3082 3081 3079 3078 3074 3071 3073 3075 3077 3079 3081 3084 3087
3120 3120 3121 3121 3119 3119 3117 3116 3115 3113 3111 3109 3108 3106 3105 3103 3102 3098 3096 3095 3093 3091 3090 3089 3087 3086 3083 3084 3080 3079 3079 3078 3078 3078 3077 3076 3070 3068 3070 3073 3075 3077 3079 3081 3084
3112 3110 3112 3112 3112 3111 3110 3109 3110 3109 3108 3107 3106 3104 3102 3101 3099 3097 3094 3093 3092 3091 3089 3088 3085 3084 3083 3081 3079 3077 3076 3075 3076 3076 3073 3071 3068 3067 3068 3070 3074 3077 3079 3082 3085
3099 3098 3100 3101 3103 3103 3104 3104 3102 3104 3103 3102 3101 3101 3100 3098 3096 3094 3093 3091 3090 3089 3088 3087 3084 3081 3080 3078 3076 3074 3073 3073 3072 3072 3072 3069 3067 3065 3067 3068 3072 3076 3078 3080 3083
3088 3089 3089 3090 3092 3094 3093 3095 3095 3097 3097 3095 3095 3096 3095 3094 3095 3093 3091 3090 3088 3086 3086 3085 3083 3080 3077 3075 3072 3069 3067 3067 3068 3068 3067 3067 3066 3064 3065 3068 3071 3074 3076 3079 3081
3075 3076 3078 3073 3078 3081 3081 3084 3088 3088 3089 3089 3088 3088 3088 3089 3088 3087 3087 3086 3086 3084 3083 3082 3081 3079 3075 3073 3070 3067 3062 3060 3061 3063 3064 3063 3064 3064 3064 3067 3070 3072 3074 3077 3079
Wind_Speed
13 14 18 19 21 21 20 20 20 21 20 18 18 20 22 22 20 18 15 11 8 7 9 8 11 14 20 24 25 28 22 26 29 19 26 28 30 31 33 26 28 30 25 20 16
11 13 16 18 20 21 21 21 23 22 21 19 19 22 24 23 17 14 13 11 9 9 10 9 11 16 20 21 25 26 25 21 21 18 22 24 29 29 33 29 30 29 26 21 19
11 11 13 16 19 21 21 22 23 24 23 21 21 22 24 23 17 14 14 10 9 10 8 10 13 14 17 19 22 27 20 19 13 25 21 28 24 32 34 31 29 29 26 21 19
12 10 11 13 16 19 19 21 22 22 25 23 22 24 25 26 13 20 12 10 11 11 6 7 12 13 16 22 22 19 24 18 13 21 27 23 28 32 36 25 29 25 23 22 18
12 10 10 11 14 16 17 19 22 20 23 23 21 23 25 25 25 25 8 7 8 8 5 9 9 14 18 18 17 23 17 19 20 18 21 33 30 29 40 32 31 27 22 33 20
13 12 10 11 12 13 16 17 19 21 19 23 19 21 24 23 26 28 8 4 1 2 2 6 7 13 18 17 19 15 19 16 25 22 22 26 28 33 38 35 30 30 26 34 27
15 13 12 11 11 12 14 15 16 19 21 20 20 20 21 24 30 33 12 1 2 2 1 4 9 10 13 18 18 18 16 8 23 26 24 25 24 30 30 39 33 28 29 25 38
17 16 13 12 11 12 12 13 14 16 19 16 22 17 19 23 29 32 8 5 2 2 1 2 4 6 8 17 12 15 11 12 11 31 29 19 19 17 32 40 39 29 27 30 28
18 18 16 14 13 12 13 14 14 15 17 18 18 15 18 21 26 30 19 9 8 4 1 2 4 2 4 11 8 11 6 12 6 32 29 24 13 14 24 34 40 36 28 29 31
19 19 18 16 14 13 13 14 15 14 15 18 15 13 14 16 21 25 27 12 9 6 2 1 0 1 6 7 6 6 7 8 13 15 35 20 20 14 22 30 32 33 31 32 33
20 19 20 19 16 14 15 14 15 15 11 14 14 15 13 12 15 20 20 21 18 10 6 5 5 3 5 9 4 3 7 6 9 11 28 28 18 16 20 27 26 30 28 32 33
20 20 20 21 19 16 15 15 14 12 8 9 12 12 10 10 15 17 16 15 12 12 18 2 5 7 6 8 11 3 5 8 5 10 21 23 24 18 20 26 26 30 31 31 33
19 20 20 21 21 20 17 15 15 13 7 6 11 10 9 8 13 18 17 14 15 15 13 11 3 8 3 7 8 7 8 6 3 6 15 17 20 20 23 24 26 27 35 32 28
17 19 20 20 21 22 21 17 14 12 4 5 9 8 8 5 7 13 18 13 15 14 10 8 10 5 2 8 7 4 4 5 2 10 12 20 12 24 22 22 28 25 28 39 33
17 17 18 19 20 22 22 20 15 7 2 8 8 9 7 6 5 7 10 14 10 11 8 4 3 6 9 13 7 3 3 8 5 11 8 17 6 19 24 26 25 26 22 20 34
18 17 17 18 18 19 21 22 10 4 3 6 7 7 8 7 6 7 6 9 10 6 6 6 1 4 5 11 7 2 8 6 7 7 7 14 12 9 24 26 24 25 22 22 24
18 19 18 17 17 19 18 19 4 3 11 8 9 8 7 7 7 8 8 6 5 2 3 2 2 2 2 3 4 8 11 3 3 3 1 11 11 5 17 23 26 26 24 22 22
20 20 19 17 15 17 18 15 3 9 9 13 12 10 7 8 8 8 8 9 7 5 3 2 3 2 3 6 4 9 7 3 0 3 3 10 8 9 10 17 21 24 25 24 23
22 21 22 19 17 16 15 8 6 12 11 12 13 7 7 6 7 8 7 7 7 5 2 2 1 1 3 4 7 9 8 9 2 1 2 5 7 11 12 13 20 22 24 24 23
27 26 23 22 18 20 16 10 9 13 14 12 7 6 9 9 6 7 6 5 6 5 4 3 1 2 6 2 5 6 7 4 4 2 3 4 5 7 19 17 14 18 23 25 25
30 29 27 21 24 24 16 12 14 12 13 10 10 8 10 11 8 6 5 7 6 6 5 5 2 3 6 7 6 8 9 7 4 3 3 1 4 19 20 22 19 20 21 24 27
33 32 28 29 27 24 16 14 18 15 14 13 11 10 8 9 9 7 6 6 8 7 4 4 5 5 8 9 11 12 12 14 7 3 4 3 6 11 19 22 22 21 22 24 27
35 35 33 31 25 21 24 26 22 16 12 10 12 15 13 11 6 8 8 8 8 7 5 4 3 4 3 6 11 11 13 14 12 9 8 4 3 10 21 20 20 20 22 24 25
39 35 31 34 33 30 25 20 12 11 12 15 17 16 16 16 12 9 9 7 7 7 7 8 7 8 6 6 7 7 9 12 12 5 5 10 11 9 17 18 19 19 19 18 16
42 39 37 30 28 18 19 24 29 25 22 19 21 16 15 17 14 15 10 9 9 9 9 7 9 11 10 13 15 15 14 13 15 15 7 7 8 10 14 18 20 18 17 17 17
41 42 39 41 38 37 36 35 33 27 22 23 21 17 17 19 17 20 18 14 11 9 9 10 10 12 17 15 16 19 17 19 20 19 19 16 11 11 16 18 19 20 19 18 17
39 41 39 48 43 42 44 41 36 32 27 24 18 17 17 15 18 20 20 18 17 17 16 15 11 8 7 9 12 17 11 20 20 19 13 17 14 14 19 20 21 19 17 16 16
Wind_Direction
25 20 20 19 17 11 12 14 11 7 360 356 353 349 342 325 312 309 299 284 294 288 273 258 239 214 212 211 211 213 213 219 213 208 203 212 209 207 212 214 204 204 204 206 208
24 20 20 19 16 15 20 19 17 15 14 7 359 359 1 0 342 319 298 272 268 283 276 250 228 219 213 216 211 208 216 218 213 214 200 219 206 208 210 213 205 204 207 209 208
17 17 17 19 16 17 19 18 21 25 18 7 4 4 7 357 2 334 299 290 263 270 286 243 221 219 220 217 211 215 217 211 206 201 195 206 204 206 206 211 211 207 208 205 211
6 6 7 16 16 16 15 16 16 17 21 15 10 12 11 5 2 330 331 280 267 259 266 255 216 222 224 218 217 216 224 210 204 204 200 210 203 203 209 212 211 208 212 217 216
357 355 354 3 10 11 12 15 17 13 16 15 14 14 11 11 6 359 7 320 237 247 250 233 232 231 231 219 216 220 231 230 201 203 210 219 220 205 209 213 214 206 200 216 218
354 348 346 346 359 0 5 11 14 11 10 9 6 13 15 18 3 355 3 44 184 170 258 247 247 232 236 215 216 230 233 223 202 198 207 220 221 214 209 212 215 217 211 205 228
3 344 344 338 338 346 352 2 8 6 7 5 1 9 20 11 5 357 358 34 15 355 228 287 304 213 218 209 218 233 248 200 203 195 204 218 223 221 209 215 214 215 214 206 207
4 355 336 333 331 328 339 344 352 0 1 0 4 4 18 14 8 0 40 57 11 51 243 316 72 133 183 212 199 208 217 207 211 195 204 215 230 227 215 213 217 217 216 210 200
1 359 349 331 329 327 326 332 334 346 349 356 1 359 14 22 21 21 25 42 65 44 73 339 88 132 128 177 162 190 219 214 229 201 203 213 221 212 215 212 219 219 214 215 210
360 357 355 346 332 330 327 328 325 330 331 339 357 2 8 20 20 11 9 15 43 28 6 298 245 222 193 188 218 213 222 225 219 218 209 216 219 200 207 212 218 222 217 216 207
360 357 356 353 343 336 332 330 323 324 332 331 340 351 350 7 14 15 15 41 49 35 320 279 238 221 204 191 177 190 256 240 252 218 212 217 218 215 204 209 216 213 208 213 208
4 359 356 355 351 346 341 332 332 332 346 337 341 355 357 18 17 17 13 13 10 11 18 305 223 216 200 207 206 212 250 266 242 201 214 213 218 217 214 212 213 209 208 207 207
3 3 358 355 351 350 348 337 333 331 329 344 351 2 9 34 23 18 11 6 3 3 20 49 63 169 199 194 192 231 264 204 204 232 198 206 218 223 224 215 214 213 212 211 199
355 1 1 356 352 350 351 344 338 333 312 346 352 2 1 7 30 20 14 5 1 359 6 43 88 154 180 184 179 191 154 167 175 185 190 188 210 217 222 217 215 216 218 218 209
348 353 359 358 355 352 349 350 343 338 327 338 344 342 345 354 2 12 12 8 1 358 13 354 63 34 9 188 147 200 247 194 207 203 197 198 227 213 218 218 215 215 215 222 236
347 347 349 355 353 353 351 348 345 360 296 328 327 331 327 319 318 322 340 2 19 15 5 351 282 0 60 160 177 247 131 166 217 205 200 191 207 212 210 215 217 217 212 219 235
342 343 345 344 348 349 348 350 352 21 331 330 326 315 301 299 302 303 311 316 357 325 353 18 0 20 6 219 134 149 147 161 161 197 171 187 205 247 211 210 213 218 215 216 222
330 336 338 336 339 345 345 347 316 331 339 331 329 317 307 301 285 297 301 305 308 329 308 256 274 242 311 212 196 170 197 191 330 201 140 176 215 217 200 198 206 208 212 218 214
316 324 327 331 329 334 340 330 314 326 329 334 331 329 319 321 302 307 292 295 314 330 307 310 268 219 131 239 223 217 230 256 287 288 229 192 222 218 214 202 200 202 206 208 211
303 309 320 321 323 325 324 310 311 322 325 326 326 316 318 319 319 313 300 297 329 330 342 338 227 195 160 207 228 225 232 245 235 224 254 209 240 208 211 215 200 196 206 211 215
298 301 308 311 313 318 308 296 313 316 319 317 309 300 314 323 312 312 300 305 300 310 306 310 250 228 192 196 205 231 238 245 277 257 298 290 227 213 202 207 213 206 208 207 209
289 293 295 299 305 307 301 298 308 303 306 301 304 298 298 311 311 305 299 302 313 309 289 289 277 249 228 217 217 219 220 217 231 241 232 272 265 225 207 203 207 204 206 204 203
280 281 283 285 288 289 290 294 291 290 294 292 295 298 298 295 300 290 302 313 313 309 316 310 265 293 273 255 247 247 243 239 240 247 230 249 249 220 211 214 202 197 197 200 200
277 279 276 279 278 279 281 276 275 282 296 294 295 293 293 291 283 272 291 296 305 294 301 315 283 258 270 287 284 254 253 240 225 223 228 239 276 251 207 209 208 197 195 200 204
267 269 269 265 267 257 259 268 275 281 284 285 289 297 292 282 286 287 280 275 287 281 269 291 297 292 284 287 283 273 262 251 239 236 237 261 267 251 206 191 196 202 199 197 206
262 262 260 262 261 261 264 266 268 273 269 279 278 288 276 277 283 282 286 285 282 275 267 271 279 290 289 286 284 286 273 254 243 241 246 252 260 221 198 188 186 188 189 192 200
257 258 259 258 256 256 258 262 265 267 271 270 268 266 272 279 271 269 272 275 273 276 274 274 276 290 276 284 298 291 284 255 253 250 255 251 249 234 209 192 188 192 197 208 218